[[{"header":{"parameterUnit":"m.s-1","parameterCategory":1,"la1":30.2991,"la2":30.254,"lo1":-89.0895,"lo2":-89.0444,"dy":0.0017,"dx":0.0017,"nx":28,"ny":28,"refTime":"2025-11-25T03:00:00:Z","depth":0,"parameterNumber":2,"parameterNumberName":"U-component_of_WINDS"},"data":[0,0,0,0,0,0,0,0,0,0,0,0,0,0,0,0,0,0,0,0,0,0,0,0,0,0,0,0,0,0,0,0,0,0,0,0,0,0,0,0,0,0,0,0,0,0,0,0,0,0,0,0,0,0,0,0,0,0,-0.3391,-0.339,0,-0.3321,-0.332,-0.332,-0.3286,-0.3286,-0.3286,-0.3286,-0.3213,-0.3211,-0.3209,0,0,0,0,0,0,0,0,0,0,0,0,0,-0.3493,-0.3491,-0.3391,-0.339,-0.3389,-0.3321,-0.332,-0.3319,-0.3286,-0.3286,-0.3286,-0.3286,-0.3213,-0.3211,-0.3209,0,0,0,0,0,0,0,0,0,0,0,0,0,-0.3438,-0.3491,-0.3391,-0.3365,-0.3362,-0.3322,-0.332,-0.3319,-0.3286,-0.3286,-0.3286,-0.3286,-0.3214,-0.3211,-0.3208,-0.3189,0,0,-0.3199,-0.3198,0,0,0,0,0,0,0,0,-0.3442,-0.3435,-0.3369,-0.3366,-0.3363,-0.3312,-0.3329,-0.3275,-0.3286,-0.3315,-0.3286,-0.3286,-0.3246,-0.324,-0.3227,-0.3186,-0.3182,-0.3199,-0.3197,-0.3196,-0.3195,0,0,0,0,0,0,0,-0.3445,-0.3437,-0.3363,-0.3369,-0.3365,-0.3355,-0.3348,-0.3319,-0.3281,-0.3312,-0.331,-0.3302,-0.3244,-0.323,-0.3225,-0.3181,-0.3199,-0.3196,-0.3195,-0.3193,-0.3118,-0.3118,0,0,0,0,0,0,-0.3454,-0.3441,-0.3366,-0.3361,-0.3403,-0.3353,-0.3345,-0.3329,-0.3281,-0.3274,-0.3302,-0.3301,-0.3235,-0.3228,-0.3222,-0.3195,-0.3196,-0.3193,-0.3191,-0.3119,-0.3118,-0.3118,0,0,0,0,0,0,-0.3456,-0.3447,-0.3368,-0.34,-0.339,-0.3352,-0.3334,-0.3327,-0.3313,-0.3273,-0.3266,-0.3295,-0.3235,-0.3226,-0.3197,-0.3192,-0.3192,-0.3189,-0.3119,-0.3119,-0.3118,-0.3142,0,0,0,0,0,0,-0.3459,-0.3448,-0.3442,-0.34,-0.3388,-0.3346,-0.3333,-0.3326,-0.3308,-0.3306,-0.3265,-0.3258,-0.3234,-0.3202,-0.3194,-0.3188,-0.3187,-0.3119,-0.3119,-0.3118,-0.3141,-0.3142,-0.3143,0,0,0,0,0,-0.3463,-0.3451,-0.3441,-0.3432,-0.3379,-0.3345,-0.3338,-0.3312,-0.3308,-0.33,-0.3274,-0.3259,-0.3194,-0.3199,-0.319,-0.3183,-0.3119,-0.3119,-0.3118,-0.3141,-0.3142,-0.3143,0,0,0,0,0,0,-0.3492,-0.3445,-0.3434,-0.3409,-0.3381,-0.334,-0.3329,-0.3314,-0.3287,-0.3286,-0.3254,-0.3244,-0.3218,-0.3198,-0.3204,-0.3161,-0.3155,-0.3153,-0.3175,-0.3176,-0.3177,-0.3182,-0.3184,0,0,0,0,0,-0.3496,-0.3473,-0.3433,-0.3414,-0.3401,-0.3368,-0.3352,-0.3334,-0.3304,-0.3292,-0.3264,-0.3236,-0.3208,-0.3191,-0.3164,-0.3138,-0.3128,-0.3129,-0.313,-0.3131,-0.3129,-0.3112,-0.3111,-0.3117,-0.3117,-0.3117,0,0,-0.3502,-0.3474,-0.3462,-0.3419,-0.3396,-0.3373,-0.3358,-0.3334,-0.3316,-0.3289,-0.3259,-0.3238,-0.3203,-0.3175,-0.3161,-0.3157,-0.3125,-0.313,-0.3131,-0.3129,-0.3111,-0.3111,-0.3111,-0.3116,-0.3116,-0.3116,0,0,-0.3503,-0.348,-0.3461,-0.3438,-0.3403,-0.338,-0.3376,-0.3336,-0.3321,-0.3291,-0.3269,-0.3247,-0.3201,-0.3177,-0.3159,-0.3148,-0.3133,-0.314,-0.3145,-0.3129,-0.3129,-0.3128,-0.3123,-0.3122,-0.3139,-0.3139,-0.3139,0,-0.3516,-0.348,-0.3453,-0.343,-0.3411,-0.3385,-0.3365,-0.3344,-0.3302,-0.3289,-0.3285,-0.3226,-0.3201,-0.3166,-0.3164,-0.315,-0.3143,-0.3145,-0.3131,-0.313,-0.3129,-0.3124,-0.3122,-0.314,-0.314,-0.314,-0.314,0,-0.3497,-0.3472,-0.3461,-0.3421,-0.3401,-0.338,-0.3348,-0.3331,-0.3314,-0.3292,-0.3261,-0.323,-0.3195,-0.3186,-0.3169,-0.3148,-0.3146,-0.3137,-0.3131,-0.313,-0.3125,-0.3123,-0.3141,-0.3141,-0.3141,-0.314,0,0,-0.3514,-0.3458,-0.3455,-0.3435,-0.3394,-0.3374,-0.3351,-0.3318,-0.3303,-0.3274,-0.3253,-0.3214,-0.3205,-0.3185,-0.3165,-0.3151,-0.3143,-0.3143,-0.3142,-0.3143,-0.3116,-0.3122,-0.3121,-0.3133,-0.3132,-0.3132,-0.3118,0,-0.3508,-0.3465,-0.344,-0.3407,-0.3383,-0.3358,-0.3337,-0.3309,-0.3287,-0.3263,-0.3239,-0.3211,-0.3202,-0.3189,-0.3174,-0.3147,-0.3137,-0.3148,-0.3111,-0.311,-0.312,-0.3118,-0.3125,-0.3114,-0.3116,-0.3116,-0.3116,0,-0.3495,-0.3467,-0.3433,-0.3393,-0.3382,-0.3364,-0.333,-0.3308,-0.3275,-0.326,-0.3236,-0.3216,-0.3189,-0.3185,-0.3147,-0.3155,-0.3138,-0.3122,-0.3121,-0.3116,-0.3113,-0.3112,-0.311,-0.3108,-0.3112,-0.3113,-0.3113,0,-0.3509,-0.3463,-0.3436,-0.342,-0.3374,-0.3361,-0.3341,-0.3308,-0.3289,-0.326,-0.3247,-0.3215,-0.3197,-0.3171,-0.3143,-0.3143,-0.3107,-0.3101,-0.3092,-0.3093,-0.3085,-0.3086,-0.3079,-0.3076,-0.3076,-0.3076,-0.3076,0,-0.3505,-0.3484,-0.3442,-0.3425,-0.3401,-0.337,-0.3347,-0.3325,-0.3295,-0.3273,-0.3249,-0.3228,-0.3192,-0.3166,-0.3144,-0.3115,-0.3107,-0.3093,-0.3087,-0.3095,-0.3096,-0.3083,-0.3082,-0.3076,-0.3076,-0.3076,-0.3076,0,-0.3517,-0.3487,-0.3456,-0.3414,-0.3403,-0.3387,-0.335,-0.3332,-0.3309,-0.3281,-0.3272,-0.3235,-0.3204,-0.3173,-0.3131,-0.3115,-0.3086,-0.3078,-0.3097,-0.3094,-0.3086,-0.3087,-0.307,-0.3066,-0.3067,-0.3067,-0.3067,0,-0.3515,-0.3499,-0.3455,-0.3438,-0.3419,-0.3392,-0.3373,-0.3342,-0.3322,-0.3283,-0.3269,-0.3236,-0.3208,-0.3158,-0.3127,-0.3094,-0.3085,-0.3081,-0.308,-0.3088,-0.3084,-0.3085,-0.3082,-0.3082,-0.3082,-0.3082,-0.3083,0,-0.3515,-0.3501,-0.3474,-0.3442,-0.3419,-0.3392,-0.3364,-0.3352,-0.3315,-0.3294,-0.3262,-0.324,-0.3196,-0.3163,-0.3126,-0.3104,-0.3087,-0.3083,-0.3079,-0.3086,-0.3097,-0.309,-0.3098,-0.3084,-0.3084,-0.3083,-0.3083,-0.3083,-0.3519,-0.3503,-0.3469,-0.344,-0.3415,-0.3389,-0.337,-0.3344,-0.3317,-0.3279,-0.3262,-0.3229,-0.3195,-0.3144,-0.3122,-0.3095,-0.3091,-0.3085,-0.3084,-0.3083,-0.3084,-0.3103,-0.3088,-0.3088,-0.3088,-0.3088,-0.3088,0,-0.3517,-0.3494,-0.3467,-0.3428,-0.3405,-0.3391,-0.3359,-0.3339,-0.3311,-0.3281,-0.3253,-0.3215,-0.3182,-0.3148,-0.3113,-0.3098,-0.3089,-0.309,-0.309,-0.3085,-0.309,-0.3097,-0.3098,-0.3098,-0.3098,-0.3098,-0.3098,-0.3098,-0.3513,-0.3484,-0.3466,-0.3424,-0.3401,-0.3369,-0.3351,-0.3327,-0.3302,-0.3261,-0.3234,-0.3212,-0.318,-0.3142,-0.3111,-0.3101,-0.3089,-0.3092,-0.308,-0.3086,-0.3085,-0.3084,-0.309,-0.309,-0.309,-0.3077,-0.3077,-0.3077]},{"header":{"parameterUnit":"m.s-1","parameterCategory":1,"la1":30.2991,"la2":30.254,"lo1":-89.0895,"lo2":-89.0444,"dy":0.0017,"dx":0.0017,"nx":28,"ny":28,"refTime":"2025-11-25T03:00:00:Z","depth":0,"parameterNumber":3,"parameterNumberName":"V-component_of_WINDS"},"data":[0,0,0,0,0,0,0,0,0,0,0,0,0,0,0,0,0,0,0,0,0,0,0,0,0,0,0,0,0,0,0,0,0,0,0,0,0,0,0,0,0,0,0,0,0,0,0,0,0,0,0,0,0,0,0,0,0,0,6.5062,6.5063,0,6.5182,6.5184,6.5185,6.5169,6.5167,6.5165,6.5163,6.5278,6.5283,6.5288,0,0,0,0,0,0,0,0,0,0,0,0,0,6.4812,6.4817,6.5061,6.5063,6.5064,6.5182,6.5184,6.5185,6.5169,6.5167,6.5164,6.5162,6.5277,6.5283,6.5288,0,0,0,0,0,0,0,0,0,0,0,0,0,6.4925,6.4818,6.5061,6.5071,6.5073,6.5182,6.5184,6.5186,6.517,6.5167,6.5164,6.5161,6.5275,6.5282,6.5289,6.5394,0,0,6.5312,6.5315,0,0,0,0,0,0,0,0,6.4919,6.4934,6.5068,6.507,6.5073,6.5158,6.5138,6.5255,6.517,6.5133,6.5163,6.516,6.524,6.525,6.5279,6.5399,6.5404,6.5312,6.5317,6.532,6.5322,0,0,0,0,0,0,0,6.4911,6.4929,6.5109,6.507,6.5073,6.5068,6.508,6.516,6.5201,6.5136,6.5135,6.515,6.5241,6.5272,6.5281,6.5406,6.5312,6.5319,6.5323,6.5326,6.5623,6.5626,0,0,0,0,0,0,6.4902,6.4923,6.5105,6.5113,6.4987,6.5075,6.5089,6.5133,6.52,6.5208,6.5152,6.5149,6.5261,6.5273,6.5285,6.5416,6.532,6.5327,6.5331,6.5619,6.5624,6.5627,0,0,0,0,0,0,6.4896,6.4918,6.51,6.5018,6.504,6.5082,6.5132,6.5137,6.5168,6.5213,6.5219,6.5177,6.5259,6.5275,6.5369,6.542,6.533,6.5337,6.5615,6.5621,6.5625,6.5676,0,0,0,0,0,0,6.4889,6.4916,6.4957,6.5019,6.5045,6.5183,6.5135,6.5142,6.5182,6.5179,6.5238,6.5245,6.5258,6.5358,6.5376,6.5428,6.5343,6.5611,6.5618,6.5624,6.567,6.5682,6.5693,0,0,0,0,0,6.488,6.4963,6.4959,6.4981,6.5097,6.5186,6.5201,6.5217,6.5186,6.5228,6.5257,6.5243,6.5411,6.5368,6.5388,6.5443,6.5608,6.5616,6.5623,6.5665,6.568,6.5692,0,0,0,0,0,0,6.4902,6.4971,6.4967,6.5073,6.5125,6.5183,6.5235,6.5231,6.5289,6.5283,6.5298,6.5311,6.5407,6.5434,6.5384,6.555,6.5505,6.5517,6.553,6.5544,6.5555,6.5548,6.5349,0,0,0,0,0,6.492,6.4988,6.5044,6.5132,6.5158,6.5193,6.5231,6.524,6.5292,6.5313,6.5349,6.5398,6.5463,6.5504,6.5566,6.5673,6.5688,6.5722,6.5733,6.5742,6.5753,6.5816,6.5833,6.5653,6.5653,6.5653,0,0,6.4955,6.5002,6.5043,6.5137,6.5178,6.5248,6.521,6.5284,6.5337,6.5323,6.5416,6.5444,6.55,6.5603,6.565,6.5628,6.5806,6.5752,6.5759,6.5765,6.5826,6.5843,6.5858,6.5658,6.5657,6.5657,0,0,6.5057,6.5098,6.5179,6.5222,6.5286,6.531,6.5329,6.539,6.541,6.5504,6.5497,6.5558,6.5667,6.571,6.5745,6.587,6.586,6.5889,6.5949,6.601,6.6024,6.6037,6.6085,6.6101,6.5899,6.5899,6.5899,0,6.5093,6.5201,6.5219,6.5298,6.534,6.5336,6.5418,6.5458,6.5537,6.5566,6.5541,6.5684,6.572,6.5835,6.5866,6.5894,6.5918,6.5882,6.6021,6.6034,6.6046,6.6092,6.611,6.5902,6.5902,6.5902,6.5901,0,6.5243,6.5318,6.5375,6.5458,6.5507,6.5585,6.5616,6.5663,6.5669,6.5695,6.5792,6.5837,6.591,6.5938,6.5941,6.6054,6.604,6.6018,6.5973,6.6067,6.611,6.6127,6.5907,6.5906,6.5905,6.5904,0,0,6.5359,6.5457,6.5477,6.5517,6.559,6.5647,6.5727,6.5802,6.5844,6.5899,6.5968,6.6063,6.6046,6.6087,6.6095,6.6149,6.625,6.6121,6.6123,6.6146,6.6381,6.6399,6.6419,6.6244,6.6247,6.625,6.6378,0,6.5471,6.5616,6.5638,6.5765,6.5836,6.5836,6.5906,6.5958,6.5985,6.6048,6.6076,6.6146,6.6116,6.6141,6.6195,6.6226,6.6298,6.6217,6.6308,6.6311,6.6296,6.6441,6.6459,6.6578,6.6395,6.6397,6.6399,0,6.5619,6.5686,6.5822,6.5891,6.5921,6.5984,6.6058,6.6118,6.6177,6.6194,6.6243,6.6246,6.6329,6.6281,6.6396,6.6341,6.638,6.6401,6.6406,6.6416,6.6362,6.6458,6.6615,6.6634,6.6426,6.6423,6.6422,0,6.5695,6.5817,6.5916,6.595,6.6031,6.6076,6.6111,6.6169,6.6214,6.6278,6.6308,6.6379,6.6418,6.6472,6.6495,6.6457,6.6611,6.6563,6.6627,6.6627,6.666,6.6658,6.6829,6.6681,6.6681,6.668,6.668,0,6.5819,6.5902,6.5952,6.6013,6.6108,6.6133,6.6225,6.6258,6.6311,6.6378,6.6379,6.6442,6.6467,6.6534,6.6551,6.6647,6.6663,6.6679,6.6683,6.668,6.6679,6.6706,6.67,6.6685,6.6684,6.6683,6.6682,0,6.5919,6.5955,6.6064,6.6135,6.6155,6.6222,6.6281,6.634,6.6369,6.6454,6.6475,6.6519,6.6598,6.6627,6.672,6.6733,6.6845,6.684,6.6826,6.6827,6.6891,6.6886,6.7087,6.7116,6.6947,6.6949,6.695,0,6.5996,6.6062,6.6142,6.619,6.6228,6.6303,6.6352,6.6379,6.643,6.6506,6.6556,6.6636,6.6702,6.6828,6.6867,6.694,6.6939,6.7005,6.695,6.6947,6.6944,6.6941,6.6949,6.7015,6.7017,6.7018,6.702,0,6.6131,6.6147,6.6219,6.63,6.6359,6.6422,6.6483,6.6521,6.6558,6.6614,6.6698,6.6749,6.6849,6.6929,6.7005,6.704,6.7037,6.7037,6.7056,6.7055,6.7046,6.7055,6.6857,6.7032,6.7031,6.703,6.7029,6.7029,6.6224,6.6284,6.6353,6.6434,6.6484,6.6543,6.6604,6.6643,6.6714,6.6801,6.6812,6.6902,6.6964,6.7067,6.7106,6.7177,6.7158,6.7185,6.7192,6.7199,6.7206,6.7034,6.719,6.7189,6.7189,6.7189,6.7189,0,6.6361,6.6407,6.6482,6.6571,6.6636,6.6631,6.67,6.6754,6.6835,6.6894,6.6961,6.7059,6.7138,6.7185,6.7265,6.7312,6.7313,6.7332,6.733,6.7339,6.7216,6.7193,6.7331,6.7331,6.7331,6.7331,6.7331,6.7331,6.6441,6.6545,6.657,6.67,6.6744,6.6836,6.6877,6.6931,6.698,6.7091,6.7158,6.719,6.7246,6.733,6.7403,6.7415,6.7445,6.7466,6.7477,6.7361,6.7347,6.7333,6.7312,6.7472,6.7472,6.7594,6.7595,6.7596]}]]